Luverne, MN

12:39 AM CDT on April 24, 2018 (GMT -0500)
Luverne

Weather History for KLYV - June, 2013

Change the Weather History Date:

Friday, June 14, 2013

  Actual Average (KPQN) Record (KPQN)
Temperature  
Mean Temperature 73 °F -  
Max Temperature 82 °F 73 °F 86 °F (2003)
Min Temperature 64 °F 54 °F 50 °F (1999)
Cooling Degree Days 8    
Growing Degree Days 23 (Base 50)    
Moisture  
Dew Point 58 °F    
Average Humidity 58    
Maximum Humidity 73    
Minimum Humidity 45    
Precipitation  
Precipitation 0.00 in - - ()
Sea Level Pressure  
Sea Level Pressure 29.92 in    
Wind  
Wind Speed 12 mph (SSE)    
Max Wind Speed 29 mph    
Max Gust Speed 36 mph    
Visibility 10 miles    
Events      
Averages and records for this station are not official NWS values.
T = Trace of Precipitation, MM = Missing Value Source: NWS Daily Summary

Daily Weather History Graph

Daily Weather History Graph

Search for Another Location

Airport or City:

Astronomy

Jun. 14, 2013 Rise Set
Actual Time 5:42 AM CDT 9:07 PM CDT
Civil Twilight 5:06 AM CDT 9:43 PM CDT
Nautical Twilight 4:20 AM CDT 10:30 PM CDT
Astronomical Twilight 3:21 AM CDT 11:29 PM CDT
Moon 11:28 AM CDT (6/14) 12:05 AM CDT (6/14)
Length of Visible Light 16h 36m
Length of Day
15h 24m
Waxing Crescent, 30% of the Moon is Illuminated
Jun 14
Waxing Crescent
Jun 16
First Quarter
Jun 23
Full
Jun 29
Last Quarter
Jul 8
New

Hourly Weather History & Observations

Time (CDT) Temp. Heat Index Dew Point Humidity Pressure Visibility Wind Dir Wind Speed Gust Speed Precip Events Conditions
12:13 AM 69.8 °F - 53.6 °F 56% 30.05 in 10.0 mi ESE 5.8 mph - N/A   Mostly Cloudy
12:33 AM 68.0 °F - 53.6 °F 60% 30.05 in 10.0 mi ESE 4.6 mph - N/A   Mostly Cloudy
12:54 AM 68.0 °F - 53.6 °F 60% 30.04 in 10.0 mi ESE 6.9 mph - N/A   Clear
1:13 AM 68.0 °F - 53.6 °F 60% 30.04 in 10.0 mi SE 5.8 mph - N/A   Clear
1:33 AM 68.0 °F - 53.6 °F 60% 30.05 in 10.0 mi SSE 4.6 mph - N/A   Mostly Cloudy
1:54 AM 68.0 °F - 53.6 °F 60% 30.06 in 10.0 mi South 3.5 mph - N/A   Overcast
2:14 AM 68.0 °F - 53.6 °F 60% 30.05 in 10.0 mi SE 5.8 mph - N/A   Overcast
2:34 AM 68.0 °F - 53.6 °F 60% 30.03 in 10.0 mi ESE 6.9 mph - N/A   Overcast
2:54 AM 68.0 °F - 53.6 °F 60% 30.04 in 10.0 mi ESE 6.9 mph - N/A   Overcast
3:13 AM 68.0 °F - 55.4 °F 64% 30.02 in 10.0 mi ESE 10.4 mph - N/A   Overcast
3:34 AM 68.0 °F - 55.4 °F 64% 30.02 in 10.0 mi ESE 10.4 mph - N/A   Mostly Cloudy
3:53 AM 66.2 °F - 55.4 °F 68% 29.99 in 10.0 mi ESE 13.8 mph - N/A   Scattered Clouds
4:13 AM 68.0 °F - 55.4 °F 64% 29.97 in 10.0 mi ESE 13.8 mph 20.7 mph N/A   Clear
4:34 AM 66.2 °F - 53.6 °F 64% 29.96 in 10.0 mi ESE 15.0 mph 19.6 mph N/A   Clear
4:53 AM 66.2 °F - 53.6 °F 64% 29.96 in 10.0 mi SE 15.0 mph 21.9 mph N/A   Clear
5:14 AM 64.4 °F - 53.6 °F 68% 29.98 in 10.0 mi ESE 13.8 mph 18.4 mph N/A   Clear
5:34 AM 64.4 °F - 53.6 °F 68% 29.99 in 10.0 mi ESE 10.4 mph - N/A   Clear
5:53 AM 64.4 °F - 53.6 °F 68% 29.99 in 10.0 mi ESE 13.8 mph 18.4 mph N/A   Clear
6:14 AM 66.2 °F - 53.6 °F 64% 29.98 in 10.0 mi SE 12.7 mph - N/A   Clear
6:33 AM 68.0 °F - 53.6 °F 60% 29.98 in 10.0 mi SE 17.3 mph - N/A   Clear
6:54 AM 68.0 °F - 53.6 °F 60% 29.99 in 10.0 mi SSE 16.1 mph 23.0 mph N/A   Clear
7:14 AM 68.0 °F - 53.6 °F 60% 29.99 in 10.0 mi SSE 13.8 mph 19.6 mph N/A   Scattered Clouds
7:33 AM 68.0 °F - 53.6 °F 60% 29.98 in 10.0 mi SSE 13.8 mph 24.2 mph N/A   Scattered Clouds
7:54 AM 69.8 °F - 53.6 °F 56% 29.96 in 10.0 mi SSE 16.1 mph 26.5 mph N/A   Clear
8:14 AM 69.8 °F - 53.6 °F 56% 29.93 in 10.0 mi SSE 17.3 mph 23.0 mph N/A   Clear
8:33 AM 69.8 °F - 55.4 °F 60% 29.95 in 10.0 mi SSE 13.8 mph 24.2 mph N/A   Clear
8:54 AM 69.8 °F - 53.6 °F 56% 29.93 in 10.0 mi SSE 15.0 mph 24.2 mph N/A   Clear
9:14 AM 71.6 °F - 53.6 °F 53% 29.93 in 10.0 mi SSE 18.4 mph 23.0 mph N/A   Clear
9:33 AM 73.4 °F - 53.6 °F 50% 29.93 in 10.0 mi SSE 18.4 mph 25.3 mph N/A   Clear
9:54 AM 73.4 °F - 55.4 °F 53% 29.93 in 10.0 mi South 15.0 mph 26.5 mph N/A   Clear
10:13 AM 75.2 °F - 55.4 °F 50% 29.92 in 10.0 mi SSE 19.6 mph 23.0 mph N/A   Clear
10:33 AM 77.0 °F - 57.2 °F 50% 29.92 in 10.0 mi SSE 18.4 mph 28.8 mph N/A   Clear
10:54 AM 78.8 °F - 57.2 °F 47% 29.91 in 10.0 mi South 18.4 mph 25.3 mph N/A   Scattered Clouds
11:13 AM 78.8 °F - 59.0 °F 51% 29.90 in 10.0 mi South 20.7 mph 28.8 mph N/A   Scattered Clouds
11:34 AM 78.8 °F - 59.0 °F 51% 29.90 in 10.0 mi SSE 18.4 mph 26.5 mph N/A   Clear
11:54 AM 80.6 °F 81.1 °F 59.0 °F 48% 29.91 in 10.0 mi South 20.7 mph 26.5 mph N/A   Clear
12:13 PM 80.6 °F 80.8 °F 57.2 °F 45% 29.92 in 10.0 mi South 19.6 mph 26.5 mph N/A   Clear
12:34 PM 78.8 °F - 57.2 °F 47% 29.92 in 10.0 mi South 16.1 mph 25.3 mph N/A   Clear
12:53 PM 80.6 °F 81.1 °F 59.0 °F 48% 29.91 in 10.0 mi SSE 21.9 mph 32.2 mph N/A   Scattered Clouds
1:13 PM 80.6 °F 81.1 °F 59.0 °F 48% 29.90 in 10.0 mi SSE 18.4 mph 24.2 mph N/A   Scattered Clouds
1:34 PM 82.4 °F 82.5 °F 59.0 °F 45% 29.90 in 10.0 mi South 21.9 mph 28.8 mph N/A   Clear
1:53 PM 82.4 °F 82.9 °F 60.8 °F 48% 29.88 in 10.0 mi South 24.2 mph 31.1 mph N/A   Clear
2:13 PM 82.4 °F 82.9 °F 60.8 °F 48% 29.86 in 10.0 mi South 23.0 mph 32.2 mph N/A   Clear
2:34 PM 82.4 °F 82.9 °F 60.8 °F 48% 29.86 in 10.0 mi SSE 23.0 mph 33.4 mph N/A   Clear
2:53 PM 80.6 °F 81.5 °F 60.8 °F 51% 29.85 in 10.0 mi South 23.0 mph 33.4 mph N/A   Clear
3:13 PM 80.6 °F 81.5 °F 60.8 °F 51% 29.86 in 10.0 mi SSE 26.5 mph 35.7 mph N/A   Clear
3:34 PM 82.4 °F 82.9 °F 60.8 °F 48% 29.86 in 10.0 mi South 28.8 mph 35.7 mph N/A   Clear
3:53 PM 80.6 °F 81.8 °F 62.6 °F 54% 29.85 in 10.0 mi South 25.3 mph 32.2 mph N/A   Clear
4:13 PM 80.6 °F 81.8 °F 62.6 °F 54% 29.85 in 10.0 mi South 24.2 mph 28.8 mph N/A   Clear
4:34 PM 82.4 °F 82.9 °F 60.8 °F 48% 29.83 in 10.0 mi South 20.7 mph 28.8 mph N/A   Clear
4:53 PM 80.6 °F 81.8 °F 62.6 °F 54% 29.83 in 10.0 mi South 19.6 mph 27.6 mph N/A   Scattered Clouds
5:13 PM 80.6 °F 81.8 °F 62.6 °F 54% 29.83 in 10.0 mi South 18.4 mph 27.6 mph N/A   Scattered Clouds
5:34 PM 80.6 °F 82.3 °F 64.4 °F 58% 29.83 in 10.0 mi South 20.7 mph 26.5 mph N/A   Scattered Clouds
5:53 PM 80.6 °F 82.3 °F 64.4 °F 58% 29.83 in 10.0 mi South 19.6 mph 26.5 mph N/A   Scattered Clouds
6:13 PM 80.6 °F 82.3 °F 64.4 °F 58% 29.82 in 10.0 mi South 13.8 mph 19.6 mph N/A   Scattered Clouds
6:34 PM 82.4 °F 83.9 °F 64.4 °F 54% 29.81 in 10.0 mi South 12.7 mph 25.3 mph N/A   Scattered Clouds
6:54 PM 80.6 °F 82.3 °F 64.4 °F 58% 29.81 in 10.0 mi South 16.1 mph 23.0 mph N/A   Scattered Clouds
7:13 PM 80.6 °F 82.3 °F 64.4 °F 58% 29.80 in 10.0 mi South 13.8 mph 19.6 mph N/A   Scattered Clouds
7:34 PM 80.6 °F 82.3 °F 64.4 °F 58% 29.80 in 10.0 mi South 12.7 mph - N/A   Clear
7:53 PM 80.6 °F 82.3 °F 64.4 °F 58% 29.80 in 10.0 mi South 10.4 mph - N/A   Clear
8:14 PM 78.8 °F - 64.4 °F 61% 29.83 in 10.0 mi South 12.7 mph 16.1 mph N/A   Scattered Clouds
8:34 PM 78.8 °F - 62.6 °F 57% 29.86 in 10.0 mi South 20.7 mph 24.2 mph N/A   Mostly Cloudy
8:53 PM 77.0 °F - 62.6 °F 61% 29.86 in 10.0 mi South 15.0 mph 23.0 mph N/A   Overcast
9:14 PM 77.0 °F - 62.6 °F 61% 29.87 in 10.0 mi SSW 12.7 mph - N/A   Mostly Cloudy
9:34 PM 77.0 °F - 62.6 °F 61% 29.87 in 10.0 mi SSW 17.3 mph - N/A   Overcast
9:53 PM 75.2 °F - 62.6 °F 65% 29.87 in 10.0 mi SW 8.1 mph - N/A   Mostly Cloudy
10:14 PM 73.4 °F - 62.6 °F 69% 29.87 in 10.0 mi SSW 9.2 mph - N/A   Overcast
10:33 PM 73.4 °F - 62.6 °F 69% 29.85 in 10.0 mi SSW 5.8 mph - N/A   Mostly Cloudy
10:54 PM 73.4 °F - 62.6 °F 69% 29.83 in 10.0 mi South 6.9 mph - N/A   Mostly Cloudy
11:13 PM 71.6 °F - 62.6 °F 73% 29.83 in 10.0 mi South 4.6 mph - N/A   Scattered Clouds
11:34 PM 71.6 °F - 62.6 °F 73% 29.84 in 10.0 mi SSE 8.1 mph - N/A   Clear
11:54 PM 71.6 °F - 62.6 °F 73% 29.86 in 10.0 mi ESE 5.8 mph - N/A   Clear